Location: Passau
(48.5830°N, 13.4830°E)
Time: 14:04:22
(UTC+02:00)

Transit 2A Rocket - All Passes

Search period start: 04 August 2021 00:00
Search period end: 14 August 2021 00:00
Orbit: 589 x 913 km, 66.7° (Epoch: 03 August)

Date Brightness Start Highest point End Pass type
(mag) Time Alt. Az. Time Alt. Az. Time Alt. Az.
04 Aug - 00:50:05 10° WNW 00:53:36 17° WSW 00:57:13 10° SW visible
04 Aug - 13:45:36 10° S 13:49:24 28° ESE 13:53:27 10° NE daylight
04 Aug - 15:27:20 10° WSW 15:31:43 45° NW 15:36:30 10° NNE daylight
04 Aug - 17:12:58 10° NW 17:15:39 15° NNW 17:18:27 10° NNE daylight
04 Aug - 18:59:39 10° N 19:00:36 10° N 19:01:33 10° NNE daylight
04 Aug - 20:41:31 10° NNW 20:45:22 19° NNE 20:49:24 10° ENE daylight
04 Aug - 22:23:29 10° NNW 22:28:56 64° NE 22:34:49 10° SE visible
05 Aug - 00:06:37 10° NW 00:11:15 27° WSW 00:16:07 10° SSW visible
05 Aug - 13:04:19 10° SE 13:07:06 16° ESE 13:10:00 10° ENE daylight
05 Aug - 14:44:28 10° SW 14:48:57 73° NW 14:53:54 10° NNE daylight
05 Aug - 16:29:09 10° WNW 16:32:29 19° NNW 16:36:01 10° NNE daylight
05 Aug - 18:16:26 10° NNW 18:17:15 10° N 18:18:05 10° N daylight
05 Aug - 19:59:04 10° NNW 20:02:12 15° NNE 20:05:28 10° ENE daylight
05 Aug - 21:40:56 10° NNW 21:46:09 44° NE 21:51:45 10° ESE visible
05 Aug - 23:23:34 10° NW 23:28:48 42° WSW 23:34:21 10° S visible
06 Aug - 14:01:53 10° SSW 14:06:20 68° ESE 14:11:13 10° NE daylight
06 Aug - 15:45:33 10° W 15:49:25 25° NW 15:53:34 10° NNE daylight
06 Aug - 17:32:26 10° NNW 17:33:56 11° N 17:35:27 10° N daylight
06 Aug - 19:16:38 10° N 19:18:58 13° NNE 19:21:22 10° NE daylight
06 Aug - 20:58:26 10° NNW 21:03:16 31° NE 21:08:24 10° ESE daylight
06 Aug - 22:40:45 10° NW 22:46:16 66° WSW 22:52:09 10° SSE visible
07 Aug - 00:25:52 10° W 00:27:59 12° WSW 00:30:09 10° SW visible
07 Aug - 13:19:40 10° S 13:23:51 39° ESE 13:28:22 10° NE daylight
07 Aug - 15:02:13 10° WSW 15:06:28 35° NW 15:11:05 10° NNE daylight
07 Aug - 16:48:23 10° NW 16:50:39 13° NNW 16:53:00 10° N daylight
07 Aug - 18:34:08 10° N 18:35:40 11° N 18:37:14 10° NNE daylight
07 Aug - 20:15:59 10° NNW 20:20:16 23° NE 20:24:49 10° E daylight
07 Aug - 21:58:03 10° NW 22:03:38 83° NE 22:09:35 10° SE visible
07 Aug - 23:41:40 10° WNW 23:45:43 20° WSW 23:49:54 10° SSW visible
08 Aug - 12:37:56 10° SSE 12:41:29 23° ESE 12:45:15 10° ENE daylight
08 Aug - 14:19:09 10° SW 14:23:38 54° NW 14:28:32 10° NNE daylight
08 Aug - 16:04:27 10° WNW 16:07:26 16° NNW 16:10:34 10° NNE daylight
08 Aug - 17:51:21 10° N 17:52:20 10° N 17:53:19 10° NNE daylight
08 Aug - 19:33:31 10° NNW 19:37:11 18° NNE 19:41:00 10° ENE daylight
08 Aug - 21:15:28 10° NNW 21:20:54 56° NE 21:26:43 10° SE visible
08 Aug - 22:58:24 10° NW 23:03:20 32° WSW 23:08:31 10° S visible
09 Aug - 11:57:02 10° SE 11:59:13 13° ESE 12:01:29 10° ENE daylight
09 Aug - 13:36:23 10° SW 13:40:54 87° WNW 13:45:54 10° NE daylight
09 Aug - 15:20:43 10° W 15:24:17 21° NNW 15:28:07 10° NNE daylight
09 Aug - 17:07:48 10° NNW 17:08:59 11° N 17:10:12 10° N daylight
09 Aug - 18:51:05 10° NNW 18:53:59 14° NNE 18:57:01 10° NE daylight
09 Aug - 20:32:56 10° NNW 20:38:05 39° NE 20:43:33 10° ESE daylight
09 Aug - 22:15:27 10° NW 22:20:51 50° WSW 22:26:35 10° S visible
10 Aug - 12:53:56 10° SSW 12:58:20 56° ESE 13:03:10 10° NE daylight
10 Aug - 14:37:13 10° W 14:41:16 28° NW 14:45:38 10° NNE daylight
10 Aug - 16:23:49 10° NW 16:25:40 12° NNW 16:27:36 10° N daylight
10 Aug - 18:08:36 10° N 18:10:43 12° NNE 18:12:54 10° NE daylight
10 Aug - 19:50:27 10° NNW 19:55:09 28° NE 20:00:08 10° E daylight
10 Aug - 21:32:41 10° NW 21:38:17 77° WSW 21:44:15 10° SSE visible
10 Aug - 23:17:03 10° WNW 23:20:08 15° WSW 23:23:17 10° SW visible
11 Aug - 12:11:52 10° S 12:15:53 33° ESE 12:20:14 10° NE daylight
11 Aug - 13:53:58 10° WSW 13:58:20 41° NW 14:03:08 10° NNE daylight
11 Aug - 15:39:48 10° NW 15:42:24 14° NNW 15:45:07 10° NNE daylight
11 Aug - 17:25:59 10° N 17:27:24 11° N 17:28:51 10° NNE daylight
11 Aug - 19:07:59 10° NNW 19:12:07 21° NNE 19:16:27 10° E daylight
11 Aug - 20:50:03 10° NNW 20:55:37 72° NE 21:01:34 10° SE visible
11 Aug - 22:33:21 10° WNW 22:37:49 24° WSW 22:42:28 10° SSW visible
12 Aug - 11:30:21 10° SSE 11:33:34 19° ESE 11:36:58 10° ENE daylight
12 Aug - 13:11:01 10° SW 13:15:33 64° NW 13:20:34 10° NNE daylight
12 Aug - 14:55:57 10° WNW 14:59:13 18° NNW 15:02:40 10° NNE daylight
12 Aug - 16:42:56 10° NNW 16:44:04 11° N 16:45:12 10° NNE daylight
12 Aug - 18:25:32 10° NNW 18:28:59 17° NNE 18:32:35 10° ENE daylight
12 Aug - 20:07:28 10° NNW 20:12:50 49° NE 20:18:36 10° ESE daylight
12 Aug - 21:50:14 10° NW 21:55:24 37° WSW 22:00:51 10° S visible
13 Aug - 10:50:12 10° ESE 10:51:22 11° ESE 10:52:32 10° E daylight
13 Aug - 12:28:21 10° SSW 12:32:53 79° ESE 12:37:53 10° NE daylight
13 Aug - 14:12:18 10° W 14:16:07 23° NNW 14:20:12 10° NNE daylight
13 Aug - 15:59:12 10° NNW 16:00:43 11° N 16:02:17 10° N daylight
13 Aug - 17:43:04 10° NNW 17:45:46 14° NNE 17:48:33 10° NE daylight
13 Aug - 19:24:56 10° NNW 19:29:59 35° NE 19:35:20 10° ESE daylight
13 Aug - 21:07:22 10° NW 21:12:53 58° WSW 21:18:45 10° SSE visible
13 Aug - 22:53:37 10° W 22:54:31 10° WSW 22:55:24 10° WSW visible
